Content
SEND FEEDBACK

Daily
Averages
Monthly
Summary
Germany

LORRACH, GERMANY


Home > Europe > Germany
Elevation: 1043 feet     Latitude: 47 36N     Longitude: 007 36E

WEATHER
 
SELECT A DAY
Number of Records: 299,246;   Date Range: 7/1/96 - 11/22/14
 
SHARE

PRINT THIS DATA

[ ← Previous Day ]
WEATHER ALMANAC - FEBRUARY 13, 2013
[ Next Day → ]
[ °C ]   °F
Weather ElementAverageHighLow
Temperature26.5 °F30.2 °F (12:30 pm)14 °F (11:00 pm)
Dewpoint20.7 °F23 °F (12:30 am)10.4 °F (11:00 pm)
Humidity78.4 %93 % (10:00 pm)58 % (7:00 pm)
Barometer30.15 in30.31 in (7:00 pm)30.01 in (12:30 am)
Wind Speed5.5 mph9.2 mph (3:00 pm)
Weather ElementAverage
Visibility4.6 mi
Wind DirectionWSW (261.6 °)

Weather ElementTotal
Precipitation---
Heating Degree Days42.9 (Base 65)
Averaged from 51 records on February 13, 2013
WEATHER CONDITIONS BREAKOUT
WIND DIRECTION BREAKOUT
WEATHER BY HOUR - FEBRUARY 13, 2013
[ °C ]   °F
Local TimeTemperatureDewpointHumidityBarometerVisibilityWind DirectionWind SpeedGust SpeedPrecipitationEventsConditions
12:30 AM26.6 °F23.0 °F86 %30.01 in3.7 miWNW (290°)6.9 mphOvercast
1:00 AM26.0 °F22.0 °F81 %30.08 in4.0 miWNW (300°)6.9 mphClear
1:00 AM26.6 °F23.0 °F86 %30.01 in4.3 miWNW (300°)6.9 mphOvercast
1:30 AM26.6 °F23.0 °F86 %30.01 in5.0 miNW (310°)6.9 mphOvercast
2:00 AM26.6 °F23.0 °F86 %30.01 in5.0 miWNW (290°)4.6 mphOvercast
2:30 AM26.6 °F21.2 °F80 %30.04 in4.3 miWNW (290°)5.8 mphOvercast
3:00 AM26.6 °F23.0 °F86 %30.04 in4.3 miVariable3.5 mphOvercast
3:30 AM26.6 °F23.0 °F86 %30.04 in3.7 miNNW (330°)4.6 mphOvercast
4:00 AM26.6 °F21.2 °F80 %30.04 in3.7 miNW (320°)5.8 mphOvercast
4:30 AM26.6 °F23.0 °F86 %30.04 in3.7 miWNW (300°)3.5 mphMostly Cloudy
5:00 AM26.6 °F23.0 °F86 %30.04 in3.7 miWest (260°)4.6 mphMostly Cloudy
5:30 AM24.8 °F21.2 °F86 %30.06 in3.7 miWest (280°)4.6 mphMostly Cloudy
6:00 AM24.8 °F21.2 °F86 %30.06 in3.7 miWNW (290°)5.8 mphMostly Cloudy
6:30 AM26.6 °F23.0 °F86 %30.06 in3.7 miNW (320°)8.1 mphMostly Cloudy
7:00 AM26.0 °F22.0 °F78 %30.16 in4.0 miNW (320°)5.8 mphOvercast
7:00 AM24.8 °F21.2 °F86 %30.09 in3.7 miNW (320°)5.8 mphMostly Cloudy
7:30 AM24.8 °F21.2 °F86 %30.09 in3.1 miNW (320°)6.9 mphOvercast
8:00 AM24.8 °F21.2 °F86 %30.09 in3.1 miNW (310°)4.6 mphOvercast
8:30 AM24.8 °F21.2 °F86 %30.12 in3.1 miWNW (300°)6.9 mphOvercast
9:00 AM24.8 °F21.2 °F86 %30.12 in3.7 miWNW (300°)6.9 mphOvercast
9:30 AM26.6 °F21.2 °F80 %30.12 in4.3 miWNW (300°)6.9 mphOvercast
10:00 AM26.6 °F21.2 °F80 %30.15 in4.3 miWNW (300°)6.9 mphOvercast
10:30 AM26.6 °F23.0 °F86 %30.15 in4.3 miNW (310°)6.9 mphOvercast
11:00 AM28.4 °F23.0 °F80 %30.15 in4.3 miVariable2.3 mphMostly Cloudy
11:30 AM28.4 °F21.2 °F74 %30.18 in5.0 miNNW (330°)4.6 mphMostly Cloudy
12:00 PM28.4 °F21.2 °F74 %30.18 in5.0 miNNW (340°)4.6 mphMostly Cloudy
12:30 PM30.2 °F23.0 °F75 %30.15 in5.0 miNNW (340°)5.8 mphMostly Cloudy
1:00 PM30.0 °F23.0 °F64 %30.23 in4.0 miNW (320°)4.6 mphPartly Cloudy
1:00 PM30.2 °F23.0 °F75 %30.15 in5.0 miNNW (330°)4.6 mphMostly Cloudy
1:30 PM30.2 °F23.0 °F75 %30.18 in5.0 miNW (320°)4.6 mphMostly Cloudy
2:00 PM30.2 °F23.0 °F75 %30.18 in5.0 miNorth (350°)6.9 mphMostly Cloudy
2:30 PM30.2 °F21.2 °F69 %30.18 in5.0 miNorth (360°)6.9 mphOvercast
3:00 PM30.2 °F21.2 °F69 %30.18 in5.0 miNorth (350°)9.2 mphOvercast
3:30 PM30.2 °F21.2 °F69 %30.18 in5.6 miNorth (10°)8.1 mphOvercast
4:00 PM30.2 °F21.2 °F69 %30.18 in5.6 miNorth (350°)9.2 mphOvercast
4:30 PM30.2 °F21.2 °F69 %30.21 in6.2 miNorth (360°)8.1 mphOvercast
5:00 PM30.2 °F19.4 °F64 %30.21 in6.2 miNNW (340°)8.1 mphOvercast
5:30 PM30.2 °F19.4 °F64 %30.21 in6.2 miNNW (340°)6.9 mphOvercast
6:00 PM28.4 °F19.4 °F69 %30.21 in6.2 miNNW (340°)6.9 mphOvercast
6:30 PM30.2 °F19.4 °F64 %30.24 in6.2 miNNW (340°)3.5 mphOvercast
7:00 PM29.0 °F20.0 °F58 %30.31 in7.0 miWNW (290°)3.5 mphOvercast
7:00 PM28.4 °F19.4 °F69 %30.24 in6.2 miVariable3.5 mphOvercast
7:30 PM28.4 °F21.2 °F74 %30.24 in6.2 miWNW (290°)5.8 mphOvercast
8:00 PM28.4 °F21.2 °F74 %30.24 in6.2 miNW (320°)4.6 mphMostly Cloudy
8:30 PM26.6 °F19.4 °F74 %30.24 in6.2 miNW (320°)4.6 mphPartly Cloudy
9:00 PM23.0 °F15.8 °F74 %30.24 in5.6 miNNW (340°)3.5 mphPartly Cloudy
9:30 PM19.4 °F15.8 °F86 %30.24 in4.3 miVariable3.5 mphPartly Cloudy
10:00 PM21.2 °F19.4 °F93 %30.24 in4.3 miVariable2.3 mph
10:30 PM15.8 °F12.2 °F86 %30.24 in3.1 miVariable2.3 mph
11:00 PM14.0 °F10.4 °F86 %30.24 in3.1 miVariable2.3 mph
11:30 PM15.8 °F12.2 °F86 %30.24 in3.1 miVariable2.3 mph
Hourly data recorded from LFSB, located miles away from Lorrach, Germany







STORIES FROM OUR PARTNERS